User: anonymous   Login
Location: Couloutre
(47.4081°N, 3.2259°E)
Time: 07:12:07
(UTC+00:00)
Language:

Lacrosse 5 rocket - Orbit

View from above orbital plane
View from above orbital plane
View from above satellite
View from above satellite

Ground track
Ground track

The orbit data is extracted from the following two-line orbital elements,

1 28647U 05016B   20156.74146869 +.00000221 +00000-0 +30922-4 0  9993
2 28647 056.9972 292.1670 0129623 119.3551 242.0505 15.06000176058043
Epoch (UTC): 04 June 2020 17:47:42
Eccentricity: 0.0129623
inclination: 56.9972°
perigee height: 458 km
apogee height: 638 km
right ascension of ascending node: 292.1670°
argument of perigee: 119.3551°
revolutions per day: 15.06000176
mean anomaly at epoch: 242.0505°
orbit number at epoch: 5804

The dashed part of the orbit path shows where the satellite is in the earth's shadow,  

DLR